FENGYUN 1C DEB

Satellite information

Favourite Embed

Satellite Type and Status

DEBRISIN ORBIT

Key statistics

Satellite FENGYUN 1C DEB at a glance.

Uptime

9496

Days in orbit

Revolutions

≈ 14.4

Per day

Orbit

SSO

Sun Synchronous Orbit

Inclination

99.0

Latest

Satellite identification and parameters

Extended collection of information and parameters for FENGYUN 1C DEB.

Object identification

Identified? True

Debris? True

Object name: FENGYUN 1C DEB

International designator: 1999-025BMS

Object number (NORAD): 31260

Object ID (CCSDS): 31260

Country: PEOPLES REPUBLIC OF CHINA (PRC)

Current information (Y/N): Y

RCS size: SMALL

Orbital parameters

Period: 100.338 minutes

Inclination: 98.9754 deg

SMA: 7152.729 km

Apoapsis: 808.156 km

Periapsis: 741.032 km

RAAN: 16.8521 deg

Eccentricy: 0.0046922

Argument of periapsis: 210.6255 deg

Mean anomaly: 323.3442 deg

Mean motion: 14.35142642 rev/day

Mean motion (dot): 0.00002605 rev/day2

B* drag term: 0.00091711 1/REarth

Two-line elements (TLE)

Creation date: May 9, 2025, 2:46 a.m.

Reference frame: TEME

Reference center: EARTH

Epoch: May 8, 2025, 10:25 a.m. UTC

TLE line 0: 0 FENGYUN 1C DEB

TLE line 1: 1 31260U 99025BMS 25128.43413211 .00002605 00000-0 91711-3 0 9999

TLE line 2: 2 31260 98.9754 16.8521 0046922 210.6255 323.3442 14.35142642940616

Live tracking on map

Real-time ground track for satellite FENGYUN 1C DEB.

In-orbit conjunctions

A list of the most updated potential collisions computed for object FENGYUN 1C DEB.

Target Orbit TCA Probability of collision Miss distance Type
CZ-6A DEB LEO 2024-11-21 17:11:38 0.0002631578 337.0 (m) DEBRIS
CZ-4B R/B SSO 2024-11-15 09:21:48 0.0004307838 708.0 (m) ROCKET BODY
CZ-6A DEB LEO 2024-11-11 16:45:38 0.0001089966 747.0 (m) DEBRIS
CZ-6A DEB LEO 2024-11-10 17:18:47 0.0003259427 279.0 (m) DEBRIS
CZ-6A DEB LEO 2024-10-17 09:50:55 0.0005032366 97.0 (m) DEBRIS

Associated space launch

Chinese polar orbiting meteorological satellite

FENGYUN 1C DEB was lifted into orbit during the mission ‘Long March 4B | Feng Yun 1C’, on board a Long March 4B space rocket.

The launch took place on May 10, 1999, 1:33 a.m. from Launch Complex 7.

For more information about the launch, click the button.

Launch to space Long March 4B | Feng Yun 1C
Long March 4B | Feng Yun 1C

Agency: N/A

Status: Launch Successful

Launch date: May 10, 1999, 1:33 a.m. UTC

Rocket: Long March 4B

Launch pad: Launch Complex 7

Location: Taiyuan Satellite Launch Center, People's Republic of China

...

Latest news about this satellite

There are no fresh news available about this satellite. Check back as we update our databases every day.


Newsletter sign-up

Weekly statistics, charts and insights to help you stay on top of the space industry.